Regional Weather Roundup
Issued by NWS Midland/Odessa, TX

Skip options and go directly to product.
Home | Oldest Version | Previous Version | Current Version | All | Text Only | Save Text | Print | Product List | Glossary Off

Skip product version selection by date and time.   

956
ASUS44 KMAF 060310
RWRMAF
MIDLAND AREA WEATHER ROUNDUP
NATIONAL WEATHER SERVICE MIDLAND TX
1000 PM CDT THU MAY 05 2016

...IN SOUTHWEST TEXAS AND SOUTHEAST NEW MEXICO...

CITY           SKY/WX    TMP DP  RH WIND       PRES   REMARKS
ALPINE         CLOUDY    71  21  15 SE8       30.16R
ANDREWS        FAIR      68  31  25 S6        30.07R
ARTESIA        CLEAR     73  25  16 SE12      30.01R
BIG SPRING     PTCLDY    70  40  33 SE8       30.09R
CARLSBAD       CLEAR     71  24  17 SE7       30.00R
DRYDEN           N/A     77  34  21 E7        30.03R
FORT STOCKTON  CLOUDY    75  27  17 SE14G23   30.04R
GUAD PASS      CLEAR     69  22  16 E28       30.12R
HOBBS          CLEAR     64  25  22 SE8       30.07S
MARFA          CLOUDY    66  22  18 E10       30.13R
MIDLAND AIRPK  PTCLDY    76  33  20 SE9       30.07R
MIDLAND INTL   CLOUDY    73  33  23 SE9       30.06R
ODESSA         CLOUDY    76  32  20 SE12      30.07R
PECOS          CLOUDY    76  24  14 SE13      30.00R
PRESIDIO       FAIR      84  24  11 MISG      29.95R
SEMINOLE       CLOUDY    66  30  26 CALM      30.07R
SNYDER           N/A     70  46  42 SE10      30.06R
WINK           CLOUDY    74  26  16 SE9       30.01R
$$
...OTHER STATIONS IN TEXAS...

CITY           SKY/WX    TMP DP  RH WIND       PRES   REMARKS
ABILENE        CLEAR     68  56  65 SE9       30.06R
AMARILLO       CLEAR     66  45  46 SE18      30.06R
AUSTIN         PTCLDY    65  60  84 CALM      30.02R
BROWNSVILLE    PTCLDY    71  63  75 E5        30.00R
CORPUS CHRISTI PTCLDY    73  59  61 SE5       29.98R
DALLAS FTW     PTCLDY    73  46  38 N5        30.02R
DEL RIO        CLEAR     76  45  33 E9        29.98R
EL PASO        PTCLDY    83  30  14 SE16G25   29.91S
HOUSTON INT    MOCLDY    70  50  49 N5        30.00R
LUBBOCK        CLEAR     74  36  25 S15       30.05R
SAN ANGELO     CLOUDY    67  47  48 SE6       30.05R
SAN ANTONIO    MOCLDY    76  52  43 CALM      30.03R
WACO           PTCLDY    63  54  72 N3        30.03R
WICHITA FALLS  NOT AVBL
$$
...OTHER LOCATIONS IN NEW MEXICO...

CITY           SKY/WX    TMP DP  RH WIND       PRES   REMARKS
ALAMAGORDO     CLEAR     81  25  12 SE17G24   29.95S
ALBUQUERQUE    PTCLDY    68  24  19 SE7       30.01R
CANNON AFB     CLEAR     63  27  25 S10       30.07R
CLOVIS         CLEAR     61  28  29 S10       30.08R
HOLLOMAN AFB   CLEAR     79  25  13 SE13      29.93R
ROSWELL        CLEAR     69  24  18 SE8       30.01R
RUIDOSO          N/A     63  19  19 SE12G23   30.21R
SANTA FE       CLOUDY    68  22  17 SE13      30.09R
TRUTH OR CONSE PTCLDY    77  29  17 SE9       29.94S
TUCUMCARI      CLEAR     61  28  28 S9        30.01R
$$

USA.gov is the U.S. government's official web portal to all federal, state and local government web resources and services.